Year,Month,Day,Hour,Minute,Value (Times are PST for temperature in C)
2018,08,08,00,00,19.40
2018,08,08,00,01,19.40
2018,08,08,00,02,19.40
2018,08,08,00,03,19.40
2018,08,08,00,04,19.30
2018,08,08,00,05,19.30
2018,08,08,00,06,19.30
2018,08,08,00,07,19.30
2018,08,08,00,08,19.30
2018,08,08,00,09,19.30
2018,08,08,00,10,19.30
2018,08,08,00,11,19.20
2018,08,08,00,12,19.20
2018,08,08,00,13,19.20
2018,08,08,00,14,19.10
2018,08,08,00,15,19.10
2018,08,08,00,16,19.10
2018,08,08,00,17,19.00
2018,08,08,00,18,19.00
2018,08,08,00,19,19.00
2018,08,08,00,20,18.90
2018,08,08,00,21,18.90
2018,08,08,00,22,18.90
2018,08,08,00,23,18.90
2018,08,08,00,24,18.90
2018,08,08,00,25,18.90
2018,08,08,00,26,18.90
2018,08,08,00,27,18.90
2018,08,08,00,28,18.90
2018,08,08,00,29,18.90
2018,08,08,00,30,18.80
2018,08,08,00,31,18.80
2018,08,08,00,32,18.80
2018,08,08,00,33,18.80
2018,08,08,00,34,18.80
2018,08,08,00,35,18.70
2018,08,08,00,36,18.70
2018,08,08,00,37,18.70
2018,08,08,00,38,18.70
2018,08,08,00,39,18.70
2018,08,08,00,40,18.70
2018,08,08,00,41,18.70
2018,08,08,00,42,18.70
2018,08,08,00,43,18.70
2018,08,08,00,44,18.70
2018,08,08,00,45,18.70
2018,08,08,00,46,18.70
2018,08,08,00,47,18.70
2018,08,08,00,48,18.70
2018,08,08,00,49,18.70
2018,08,08,00,50,18.70
2018,08,08,00,51,18.60
2018,08,08,00,52,18.60
2018,08,08,00,53,18.60
2018,08,08,00,54,18.50
2018,08,08,00,55,18.50
2018,08,08,00,56,18.40
2018,08,08,00,57,18.40
2018,08,08,00,58,18.40
2018,08,08,00,59,18.30
2018,08,08,01,00,18.30
2018,08,08,01,01,18.30
2018,08,08,01,02,18.30
2018,08,08,01,03,18.30
2018,08,08,01,04,18.30
2018,08,08,01,05,18.30
2018,08,08,01,06,18.30
2018,08,08,01,07,18.20
2018,08,08,01,08,18.20
2018,08,08,01,09,18.20
2018,08,08,01,10,18.20
2018,08,08,01,11,18.20
2018,08,08,01,12,18.10
2018,08,08,01,13,18.10
2018,08,08,01,14,18.10
2018,08,08,01,15,18.00
2018,08,08,01,16,18.00
2018,08,08,01,17,17.90
2018,08,08,01,18,17.90
2018,08,08,01,19,17.90
2018,08,08,01,20,17.80
2018,08,08,01,21,17.80
2018,08,08,01,22,17.80
2018,08,08,01,23,17.80
2018,08,08,01,24,17.80
2018,08,08,01,25,17.80
2018,08,08,01,26,17.80
2018,08,08,01,27,17.80
2018,08,08,01,28,17.80
2018,08,08,01,29,17.70
2018,08,08,01,30,17.70
2018,08,08,01,31,17.70
2018,08,08,01,32,17.70
2018,08,08,01,33,17.70
2018,08,08,01,34,17.70
2018,08,08,01,35,17.70
2018,08,08,01,36,17.70
2018,08,08,01,37,17.70
2018,08,08,01,38,17.70
2018,08,08,01,39,17.80
2018,08,08,01,40,17.80
2018,08,08,01,41,17.80
2018,08,08,01,42,17.80
2018,08,08,01,43,17.80
2018,08,08,01,44,17.80
2018,08,08,01,45,17.80
2018,08,08,01,46,17.70
2018,08,08,01,47,17.70
2018,08,08,01,48,17.70
2018,08,08,01,49,17.70
2018,08,08,01,50,17.70
2018,08,08,01,51,17.70
2018,08,08,01,52,17.60
2018,08,08,01,53,17.60
2018,08,08,01,54,17.60
2018,08,08,01,55,17.60
2018,08,08,01,56,17.60
2018,08,08,01,57,17.60
2018,08,08,01,58,17.60
2018,08,08,01,59,17.60
2018,08,08,02,00,17.50
2018,08,08,02,01,17.50
2018,08,08,02,02,17.50
2018,08,08,02,03,17.50
2018,08,08,02,04,17.50
2018,08,08,02,05,17.50
2018,08,08,02,06,17.50
2018,08,08,02,07,17.50
2018,08,08,02,08,17.50
2018,08,08,02,09,17.50
2018,08,08,02,10,17.50
2018,08,08,02,11,17.50
2018,08,08,02,12,17.50
2018,08,08,02,13,17.40
2018,08,08,02,14,17.40
2018,08,08,02,15,17.40
2018,08,08,02,16,17.40
2018,08,08,02,17,17.40
2018,08,08,02,18,17.40
2018,08,08,02,19,17.40
2018,08,08,02,20,17.40
2018,08,08,02,21,17.30
2018,08,08,02,22,17.30
2018,08,08,02,23,17.30
2018,08,08,02,24,17.30
2018,08,08,02,25,17.30
2018,08,08,02,26,17.30
2018,08,08,02,27,17.20
2018,08,08,02,28,17.20
2018,08,08,02,29,17.20
2018,08,08,02,30,17.20
2018,08,08,02,31,17.10
2018,08,08,02,32,17.10
2018,08,08,02,33,17.10
2018,08,08,02,34,17.10
2018,08,08,02,35,17.10
2018,08,08,02,36,17.10
2018,08,08,02,37,17.00
2018,08,08,02,38,17.00
2018,08,08,02,39,17.00
2018,08,08,02,40,16.90
2018,08,08,02,41,16.90
2018,08,08,02,42,16.90
2018,08,08,02,43,16.90
2018,08,08,02,44,16.90
2018,08,08,02,45,16.90
2018,08,08,02,46,16.80
2018,08,08,02,47,16.80
2018,08,08,02,48,16.80
2018,08,08,02,49,16.80
2018,08,08,02,50,16.80
2018,08,08,02,51,16.80
2018,08,08,02,52,16.80
2018,08,08,02,53,16.90
2018,08,08,02,54,16.90
2018,08,08,02,55,16.90
2018,08,08,02,56,16.90
2018,08,08,02,57,16.90
2018,08,08,02,58,16.90
2018,08,08,02,59,16.90
2018,08,08,03,00,16.90
2018,08,08,03,01,16.90
2018,08,08,03,02,16.90
2018,08,08,03,03,16.90
2018,08,08,03,04,16.90
2018,08,08,03,05,16.90
2018,08,08,03,06,16.90
2018,08,08,03,07,16.90
2018,08,08,03,08,16.90
2018,08,08,03,09,16.90
2018,08,08,03,10,16.90
2018,08,08,03,11,16.90
2018,08,08,03,12,16.90
2018,08,08,03,13,16.90
2018,08,08,03,14,16.90
2018,08,08,03,15,16.90
2018,08,08,03,16,16.90
2018,08,08,03,17,16.90
2018,08,08,03,18,16.80
2018,08,08,03,19,16.80
2018,08,08,03,20,16.80
2018,08,08,03,21,16.80
2018,08,08,03,22,16.80
2018,08,08,03,23,16.80
2018,08,08,03,24,16.80
2018,08,08,03,25,16.80
2018,08,08,03,26,16.80
2018,08,08,03,27,16.80
2018,08,08,03,28,16.80
2018,08,08,03,29,16.80
2018,08,08,03,30,16.80
2018,08,08,03,31,16.80
2018,08,08,03,32,16.70
2018,08,08,03,33,16.70
2018,08,08,03,34,16.70
2018,08,08,03,35,16.70
2018,08,08,03,36,16.70
2018,08,08,03,37,16.70
2018,08,08,03,38,16.70
2018,08,08,03,39,16.70
2018,08,08,03,40,16.70
2018,08,08,03,41,16.70
2018,08,08,03,42,16.70
2018,08,08,03,43,16.70
2018,08,08,03,44,16.70
2018,08,08,03,45,16.70
2018,08,08,03,46,16.70
2018,08,08,03,47,16.70
2018,08,08,03,48,16.70
2018,08,08,03,49,16.70
2018,08,08,03,50,16.60
2018,08,08,03,51,16.60
2018,08,08,03,52,16.60
2018,08,08,03,53,16.60
2018,08,08,03,54,16.50
2018,08,08,03,55,16.50
2018,08,08,03,56,16.50
2018,08,08,03,57,16.50
2018,08,08,03,58,16.50
2018,08,08,03,59,16.40
2018,08,08,04,00,16.40
2018,08,08,04,01,16.40
2018,08,08,04,02,16.40
2018,08,08,04,03,16.40
2018,08,08,04,04,16.40
2018,08,08,04,05,16.40
2018,08,08,04,06,16.40
2018,08,08,04,07,16.40
2018,08,08,04,08,16.40
2018,08,08,04,09,16.40
2018,08,08,04,10,16.40
2018,08,08,04,11,16.40
2018,08,08,04,12,16.40
2018,08,08,04,13,16.40
2018,08,08,04,14,16.40
2018,08,08,04,15,16.40
2018,08,08,04,16,16.40
2018,08,08,04,17,16.30
2018,08,08,04,18,16.30
2018,08,08,04,19,16.30
2018,08,08,04,20,16.30
2018,08,08,04,21,16.30
2018,08,08,04,22,16.30
2018,08,08,04,23,16.30
2018,08,08,04,24,16.30
2018,08,08,04,25,16.30
2018,08,08,04,26,16.30
2018,08,08,04,27,16.30
2018,08,08,04,28,16.20
2018,08,08,04,29,16.20
2018,08,08,04,30,16.20
2018,08,08,04,31,16.20
2018,08,08,04,32,16.20
2018,08,08,04,33,16.20
2018,08,08,04,34,16.20
2018,08,08,04,35,16.20
2018,08,08,04,36,16.20
2018,08,08,04,37,16.20
2018,08,08,04,38,16.20
2018,08,08,04,39,16.20
2018,08,08,04,40,16.20
2018,08,08,04,41,16.10
2018,08,08,04,42,16.10
2018,08,08,04,43,16.10
2018,08,08,04,44,16.10
2018,08,08,04,45,16.10
2018,08,08,04,46,16.10
2018,08,08,04,47,16.10
2018,08,08,04,48,16.10
2018,08,08,04,49,16.10
2018,08,08,04,50,16.10
2018,08,08,04,51,16.10
2018,08,08,04,52,16.10
2018,08,08,04,53,16.00
2018,08,08,04,54,16.00
2018,08,08,04,55,16.00
2018,08,08,04,56,15.90
2018,08,08,04,57,15.90
2018,08,08,04,58,15.90
2018,08,08,04,59,15.90
2018,08,08,05,00,15.80
2018,08,08,05,01,15.80
2018,08,08,05,02,15.80
2018,08,08,05,03,15.80
2018,08,08,05,04,15.80
2018,08,08,05,05,15.80
2018,08,08,05,06,15.70
2018,08,08,05,07,15.70
2018,08,08,05,08,15.70
2018,08,08,05,09,15.70
2018,08,08,05,10,15.60
2018,08,08,05,11,15.60
2018,08,08,05,12,15.60
2018,08,08,05,13,15.60
2018,08,08,05,14,15.60
2018,08,08,05,15,15.50
2018,08,08,05,16,15.50
2018,08,08,05,17,15.50
2018,08,08,05,18,15.50
2018,08,08,05,19,15.50
2018,08,08,05,20,15.50
2018,08,08,05,21,15.60
2018,08,08,05,22,15.60
2018,08,08,05,23,15.60
2018,08,08,05,24,15.60
2018,08,08,05,25,15.60
2018,08,08,05,26,15.60
2018,08,08,05,27,15.50
2018,08,08,05,28,15.50
2018,08,08,05,29,15.50
2018,08,08,05,30,15.50
2018,08,08,05,31,15.40
2018,08,08,05,32,15.40
2018,08,08,05,33,15.40
2018,08,08,05,34,15.40
2018,08,08,05,35,15.30
2018,08,08,05,36,15.30
2018,08,08,05,37,15.30
2018,08,08,05,38,15.30
2018,08,08,05,39,15.40
2018,08,08,05,40,15.40
2018,08,08,05,41,15.40
2018,08,08,05,42,15.40
2018,08,08,05,43,15.40
2018,08,08,05,44,15.40
2018,08,08,05,45,15.30
2018,08,08,05,46,15.30
2018,08,08,05,47,15.30
2018,08,08,05,48,15.30
2018,08,08,05,49,15.30
2018,08,08,05,50,15.30
2018,08,08,05,51,15.20
2018,08,08,05,52,15.20
2018,08,08,05,53,15.20
2018,08,08,05,54,15.20
2018,08,08,05,55,15.20
2018,08,08,05,56,15.20
2018,08,08,05,57,15.20
2018,08,08,05,58,15.20
2018,08,08,05,59,15.20
2018,08,08,06,00,15.20
2018,08,08,06,01,15.20
2018,08,08,06,02,15.20
2018,08,08,06,03,15.20
2018,08,08,06,04,15.10
2018,08,08,06,05,15.10
2018,08,08,06,06,15.10
2018,08,08,06,07,15.10
2018,08,08,06,08,15.10
2018,08,08,06,09,15.10
2018,08,08,06,10,15.10
2018,08,08,06,11,15.10
2018,08,08,06,12,15.10
2018,08,08,06,13,15.10
2018,08,08,06,14,15.10
2018,08,08,06,15,15.00
2018,08,08,06,16,15.00
2018,08,08,06,17,15.00
2018,08,08,06,18,15.00
2018,08,08,06,19,15.00
2018,08,08,06,20,15.00
2018,08,08,06,21,15.00
2018,08,08,06,22,15.10
2018,08,08,06,23,15.10
2018,08,08,06,24,15.10
2018,08,08,06,25,15.10
2018,08,08,06,26,15.10
2018,08,08,06,27,15.10
2018,08,08,06,28,15.20
2018,08,08,06,29,15.20
2018,08,08,06,30,15.20
2018,08,08,06,31,15.20
2018,08,08,06,32,15.20
2018,08,08,06,33,15.20
2018,08,08,06,34,15.30
2018,08,08,06,35,15.30
2018,08,08,06,36,15.30
2018,08,08,06,37,15.30
2018,08,08,06,38,15.40
2018,08,08,06,39,15.40
2018,08,08,06,40,15.40
2018,08,08,06,41,15.40
2018,08,08,06,42,15.50
2018,08,08,06,43,15.50
2018,08,08,06,44,15.60
2018,08,08,06,45,15.60
2018,08,08,06,46,15.60
2018,08,08,06,47,15.60
2018,08,08,06,48,15.60
2018,08,08,06,49,15.60
2018,08,08,06,50,15.60
2018,08,08,06,51,15.60
2018,08,08,06,52,15.70
2018,08,08,06,53,15.70
2018,08,08,06,54,15.70
2018,08,08,06,55,15.70
2018,08,08,06,56,15.60
2018,08,08,06,57,15.60
2018,08,08,06,58,15.60
2018,08,08,06,59,15.70
2018,08,08,07,00,15.70
2018,08,08,07,01,15.70
2018,08,08,07,02,15.70
2018,08,08,07,03,15.70
2018,08,08,07,04,15.80
2018,08,08,07,05,15.80
2018,08,08,07,06,15.80
2018,08,08,07,07,15.80
2018,08,08,07,08,15.90
2018,08,08,07,09,15.90
2018,08,08,07,10,16.00
2018,08,08,07,11,16.00
2018,08,08,07,12,16.00
2018,08,08,07,13,16.10
2018,08,08,07,14,16.10
2018,08,08,07,15,16.20
2018,08,08,07,16,16.20
2018,08,08,07,17,16.20
2018,08,08,07,18,16.30
2018,08,08,07,19,16.30
2018,08,08,07,20,16.40
2018,08,08,07,21,16.40
2018,08,08,07,22,16.50
2018,08,08,07,23,16.50
2018,08,08,07,24,16.60
2018,08,08,07,25,16.60
2018,08,08,07,26,16.70
2018,08,08,07,27,16.80
2018,08,08,07,28,16.80
2018,08,08,07,29,16.90
2018,08,08,07,30,17.00
2018,08,08,07,31,17.10
2018,08,08,07,32,17.20
2018,08,08,07,33,17.30
2018,08,08,07,34,17.40
2018,08,08,07,35,17.40
2018,08,08,07,36,17.50
2018,08,08,07,37,17.60
2018,08,08,07,38,17.70
2018,08,08,07,39,17.80
2018,08,08,07,40,18.00
2018,08,08,07,41,18.10
2018,08,08,07,42,18.20
2018,08,08,07,43,18.30
2018,08,08,07,44,18.40
2018,08,08,07,45,18.60
2018,08,08,07,46,18.70
2018,08,08,07,47,18.80
2018,08,08,07,48,18.90
2018,08,08,07,49,19.00
2018,08,08,07,50,19.20
2018,08,08,07,51,19.20
2018,08,08,07,52,19.30
2018,08,08,07,53,19.50
2018,08,08,07,54,19.60
2018,08,08,07,55,19.70
2018,08,08,07,56,19.80
2018,08,08,07,57,19.80
2018,08,08,07,58,19.90
2018,08,08,07,59,20.00
2018,08,08,08,00,20.10
2018,08,08,08,01,20.10
2018,08,08,08,02,20.20
2018,08,08,08,03,20.20
2018,08,08,08,04,20.20
2018,08,08,08,05,20.30
2018,08,08,08,06,20.30
2018,08,08,08,07,20.30
2018,08,08,08,08,20.30
2018,08,08,08,09,20.20
2018,08,08,08,10,20.20
2018,08,08,08,11,20.20
2018,08,08,08,12,20.20
2018,08,08,08,13,20.10
2018,08,08,08,14,20.10
2018,08,08,08,15,20.10
2018,08,08,08,16,20.00
2018,08,08,08,17,20.00
2018,08,08,08,18,19.90
2018,08,08,08,19,19.90
2018,08,08,08,20,19.90
2018,08,08,08,21,19.90
2018,08,08,08,22,19.90
2018,08,08,08,23,20.00
2018,08,08,08,24,20.00
2018,08,08,08,25,20.10
2018,08,08,08,26,20.20
2018,08,08,08,27,20.20
2018,08,08,08,28,20.30
2018,08,08,08,29,20.40
2018,08,08,08,30,20.50
2018,08,08,08,31,20.50
2018,08,08,08,32,20.60
2018,08,08,08,33,20.70
2018,08,08,08,34,20.80
2018,08,08,08,35,20.90
2018,08,08,08,36,20.90
2018,08,08,08,37,21.00
2018,08,08,08,38,21.10
2018,08,08,08,39,21.20
2018,08,08,08,40,21.30
2018,08,08,08,41,21.40
2018,08,08,08,42,21.50
2018,08,08,08,43,21.60
2018,08,08,08,44,21.70
2018,08,08,08,45,21.80
2018,08,08,08,46,21.90
2018,08,08,08,47,22.00
2018,08,08,08,48,22.20
2018,08,08,08,49,22.30
2018,08,08,08,50,22.40
2018,08,08,08,51,22.50
2018,08,08,08,52,22.60
2018,08,08,08,53,22.70
2018,08,08,08,54,22.80
2018,08,08,08,55,22.80
2018,08,08,08,56,23.00
2018,08,08,08,57,23.10
2018,08,08,08,58,23.20
2018,08,08,08,59,23.30
2018,08,08,09,00,23.40
2018,08,08,09,01,23.50
2018,08,08,09,02,23.60
2018,08,08,09,03,23.70
2018,08,08,09,04,23.80
2018,08,08,09,05,23.80
2018,08,08,09,06,23.90
2018,08,08,09,07,24.00
2018,08,08,09,08,24.10
2018,08,08,09,09,24.20
2018,08,08,09,10,24.30
2018,08,08,09,11,24.40
2018,08,08,09,12,24.50
2018,08,08,09,13,24.70
2018,08,08,09,14,24.70
2018,08,08,09,15,24.80
2018,08,08,09,16,24.90
2018,08,08,09,17,24.90
2018,08,08,09,18,25.00
2018,08,08,09,19,25.00
2018,08,08,09,20,25.10
2018,08,08,09,21,25.10
2018,08,08,09,22,25.10
2018,08,08,09,23,25.20
2018,08,08,09,24,25.20
2018,08,08,09,25,25.30
2018,08,08,09,26,25.30
2018,08,08,09,27,25.30
2018,08,08,09,28,25.40
2018,08,08,09,29,25.40
2018,08,08,09,30,25.50
2018,08,08,09,31,25.60
2018,08,08,09,32,25.70
2018,08,08,09,33,25.80
2018,08,08,09,34,25.90
2018,08,08,09,35,26.00
2018,08,08,09,36,26.10
2018,08,08,09,37,26.20
2018,08,08,09,38,26.30
2018,08,08,09,39,26.40
2018,08,08,09,40,26.60
2018,08,08,09,41,26.70
2018,08,08,09,42,26.70
2018,08,08,09,43,26.80
2018,08,08,09,44,26.90
2018,08,08,09,45,27.00
2018,08,08,09,46,27.10
2018,08,08,09,47,27.10
2018,08,08,09,48,27.10
2018,08,08,09,49,27.10
2018,08,08,09,50,27.10
2018,08,08,09,51,27.10
2018,08,08,09,52,27.00
2018,08,08,09,53,27.00
2018,08,08,09,54,27.00
2018,08,08,09,55,27.00
2018,08,08,09,56,27.00
2018,08,08,09,57,27.00
2018,08,08,09,58,27.10
2018,08,08,09,59,27.10
2018,08,08,10,00,27.20
2018,08,08,10,01,27.20
2018,08,08,10,02,27.30
2018,08,08,10,03,27.40
2018,08,08,10,04,27.50
2018,08,08,10,05,27.60
2018,08,08,10,06,27.70
2018,08,08,10,07,27.80
2018,08,08,10,08,27.90
2018,08,08,10,09,28.10
2018,08,08,10,10,28.10
2018,08,08,10,11,28.20
2018,08,08,10,12,28.20
2018,08,08,10,13,28.20
2018,08,08,10,14,28.20
2018,08,08,10,15,28.30
2018,08,08,10,16,28.40
2018,08,08,10,17,28.40
2018,08,08,10,18,28.50
2018,08,08,10,19,28.50
2018,08,08,10,20,28.50
2018,08,08,10,21,28.50
2018,08,08,10,22,28.50
2018,08,08,10,23,28.50
2018,08,08,10,24,28.50
2018,08,08,10,25,28.50
2018,08,08,10,26,28.40
2018,08,08,10,27,28.30
2018,08,08,10,28,28.30
2018,08,08,10,29,28.30
2018,08,08,10,30,28.20
2018,08,08,10,31,28.20
2018,08,08,10,32,28.30
2018,08,08,10,33,28.30
2018,08,08,10,34,28.40
2018,08,08,10,35,28.50
2018,08,08,10,36,28.50
2018,08,08,10,37,28.60
2018,08,08,10,38,28.50
2018,08,08,10,39,28.50
2018,08,08,10,40,28.40
2018,08,08,10,41,28.30
2018,08,08,10,42,28.30
2018,08,08,10,43,28.30
2018,08,08,10,44,28.30
2018,08,08,10,45,28.30
2018,08,08,10,46,28.30
2018,08,08,10,47,28.30
2018,08,08,10,48,28.40
2018,08,08,10,49,28.40
2018,08,08,10,50,28.50
2018,08,08,10,51,28.50
2018,08,08,10,52,28.60
2018,08,08,10,53,28.60
2018,08,08,10,54,28.60
2018,08,08,10,55,28.70
2018,08,08,10,56,28.70
2018,08,08,10,57,28.80
2018,08,08,10,58,28.80
2018,08,08,10,59,28.70
2018,08,08,11,00,28.70
2018,08,08,11,01,28.70
2018,08,08,11,02,28.70
2018,08,08,11,03,28.60
2018,08,08,11,04,28.60
2018,08,08,11,05,28.60
2018,08,08,11,06,28.70
2018,08,08,11,07,28.70
2018,08,08,11,08,28.70
2018,08,08,11,09,28.80
2018,08,08,11,10,28.90
2018,08,08,11,11,28.90
2018,08,08,11,12,28.90
2018,08,08,11,13,28.90
2018,08,08,11,14,28.90
2018,08,08,11,15,29.00
2018,08,08,11,16,29.00
2018,08,08,11,17,29.10
2018,08,08,11,18,29.10
2018,08,08,11,19,29.00
2018,08,08,11,20,28.90
2018,08,08,11,21,28.80
2018,08,08,11,22,28.80
2018,08,08,11,23,28.80
2018,08,08,11,24,28.90
2018,08,08,11,25,29.00
2018,08,08,11,26,29.00
2018,08,08,11,27,29.10
2018,08,08,11,28,29.10
2018,08,08,11,29,29.10
2018,08,08,11,30,29.10
2018,08,08,11,31,29.10
2018,08,08,11,32,29.20
2018,08,08,11,33,29.20
2018,08,08,11,34,29.20
2018,08,08,11,35,29.20
2018,08,08,11,36,29.20
2018,08,08,11,37,29.10
2018,08,08,11,38,29.10
2018,08,08,11,39,29.10
2018,08,08,11,40,29.10
2018,08,08,11,41,29.10
2018,08,08,11,42,29.20
2018,08,08,11,43,29.30
2018,08,08,11,44,29.30
2018,08,08,11,45,29.40
2018,08,08,11,46,29.50
2018,08,08,11,47,29.60
2018,08,08,11,48,29.60
2018,08,08,11,49,29.60
2018,08,08,11,50,29.50
2018,08,08,11,51,29.50
2018,08,08,11,52,29.40
2018,08,08,11,53,29.40
2018,08,08,11,54,29.40
2018,08,08,11,55,29.40
2018,08,08,11,56,29.40
2018,08,08,11,57,29.40
2018,08,08,11,58,29.30
2018,08,08,11,59,29.30
2018,08,08,12,00,29.30
2018,08,08,12,01,29.30
2018,08,08,12,02,29.30
2018,08,08,12,03,29.30
2018,08,08,12,04,29.30
2018,08,08,12,05,29.30
2018,08,08,12,06,29.30
2018,08,08,12,07,29.30
2018,08,08,12,08,29.30
2018,08,08,12,09,29.30
2018,08,08,12,10,29.40
2018,08,08,12,11,29.40
2018,08,08,12,12,29.40
2018,08,08,12,13,29.40
2018,08,08,12,14,29.40
2018,08,08,12,15,29.40
2018,08,08,12,16,29.50
2018,08,08,12,17,29.50
2018,08,08,12,18,29.60
2018,08,08,12,19,29.60
2018,08,08,12,20,29.70
2018,08,08,12,21,29.80
2018,08,08,12,22,29.80
2018,08,08,12,23,29.90
2018,08,08,12,24,29.80
2018,08,08,12,25,29.80
2018,08,08,12,26,29.90
2018,08,08,12,27,29.90
2018,08,08,12,28,29.90
2018,08,08,12,29,29.90
2018,08,08,12,30,29.90
2018,08,08,12,31,29.90
2018,08,08,12,32,30.00
2018,08,08,12,33,30.10
2018,08,08,12,34,30.20
2018,08,08,12,35,30.20
2018,08,08,12,36,30.20
2018,08,08,12,37,30.30
2018,08,08,12,38,30.30
2018,08,08,12,39,30.30
2018,08,08,12,40,30.30
2018,08,08,12,41,30.40
2018,08,08,12,42,30.40
2018,08,08,12,43,30.50
2018,08,08,12,44,30.60
2018,08,08,12,45,30.50
2018,08,08,12,46,30.50
2018,08,08,12,47,30.40
2018,08,08,12,48,30.40
2018,08,08,12,49,30.30
2018,08,08,12,50,30.30
2018,08,08,12,51,30.30
2018,08,08,12,52,30.30
2018,08,08,12,53,30.50
2018,08,08,12,54,30.60
2018,08,08,12,55,30.60
2018,08,08,12,56,30.70
2018,08,08,12,57,30.70
2018,08,08,12,58,30.70
2018,08,08,12,59,30.70
2018,08,08,13,00,30.70
2018,08,08,13,01,30.70
2018,08,08,13,02,30.70
2018,08,08,13,03,30.80
2018,08,08,13,04,30.80
2018,08,08,13,05,30.70
2018,08,08,13,06,30.60
2018,08,08,13,07,30.50
2018,08,08,13,08,30.40
2018,08,08,13,09,30.40
2018,08,08,13,10,30.40
2018,08,08,13,11,30.40
2018,08,08,13,12,30.40
2018,08,08,13,13,30.50
2018,08,08,13,14,30.60
2018,08,08,13,15,30.70
2018,08,08,13,16,30.80
2018,08,08,13,17,30.80
2018,08,08,13,18,30.90
2018,08,08,13,19,30.90
2018,08,08,13,20,30.90
2018,08,08,13,21,30.90
2018,08,08,13,22,30.80
2018,08,08,13,23,30.70
2018,08,08,13,24,30.70
2018,08,08,13,25,30.70
2018,08,08,13,26,30.80
2018,08,08,13,27,30.90
2018,08,08,13,28,30.90
2018,08,08,13,29,31.00
2018,08,08,13,30,31.00
2018,08,08,13,31,31.10
2018,08,08,13,32,31.10
2018,08,08,13,33,31.20
2018,08,08,13,34,31.20
2018,08,08,13,35,31.30
2018,08,08,13,36,31.40
2018,08,08,13,37,31.50
2018,08,08,13,38,31.60
2018,08,08,13,39,31.60
2018,08,08,13,40,31.50
2018,08,08,13,41,31.50
2018,08,08,13,42,31.40
2018,08,08,13,43,31.40
2018,08,08,13,44,31.40
2018,08,08,13,45,31.30
2018,08,08,13,46,31.30
2018,08,08,13,47,31.30
2018,08,08,13,48,31.30
2018,08,08,13,49,31.30
2018,08,08,13,50,31.40
2018,08,08,13,51,31.50
2018,08,08,13,52,31.50
2018,08,08,13,53,31.60
2018,08,08,13,54,31.70
2018,08,08,13,55,31.70
2018,08,08,13,56,31.70
2018,08,08,13,57,31.70
2018,08,08,13,58,31.70
2018,08,08,13,59,31.70
2018,08,08,14,00,31.70
2018,08,08,14,01,31.70
2018,08,08,14,02,31.80
2018,08,08,14,03,31.90
2018,08,08,14,04,32.10
2018,08,08,14,05,32.20
2018,08,08,14,06,32.20
2018,08,08,14,07,32.30
2018,08,08,14,08,32.30
2018,08,08,14,09,32.40
2018,08,08,14,10,32.40
2018,08,08,14,11,32.50
2018,08,08,14,12,32.50
2018,08,08,14,13,32.70
2018,08,08,14,14,32.80
2018,08,08,14,15,32.90
2018,08,08,14,16,33.00
2018,08,08,14,17,33.10
2018,08,08,14,18,33.10
2018,08,08,14,19,33.10
2018,08,08,14,20,33.10
2018,08,08,14,21,33.10
2018,08,08,14,22,33.10
2018,08,08,14,23,33.10
2018,08,08,14,24,33.10
2018,08,08,14,25,33.10
2018,08,08,14,26,33.10
2018,08,08,14,27,33.10
2018,08,08,14,28,33.10
2018,08,08,14,29,33.40
2018,08,08,14,30,33.50
2018,08,08,14,31,33.50
2018,08,08,14,32,33.50
2018,08,08,14,33,33.60
2018,08,08,14,34,33.70
2018,08,08,14,35,33.60
2018,08,08,14,36,33.50
2018,08,08,14,37,33.40
2018,08,08,14,38,33.40
2018,08,08,14,39,33.40
2018,08,08,14,40,33.30
2018,08,08,14,41,33.40
2018,08,08,14,42,33.40
2018,08,08,14,43,33.40
2018,08,08,14,44,33.40
2018,08,08,14,45,33.30
2018,08,08,14,46,33.20
2018,08,08,14,47,33.10
2018,08,08,14,48,33.10
2018,08,08,14,49,33.00
2018,08,08,14,50,32.90
2018,08,08,14,51,32.90
2018,08,08,14,52,32.90
2018,08,08,14,53,32.90
2018,08,08,14,54,32.90
2018,08,08,14,55,32.90
2018,08,08,14,56,32.90
2018,08,08,14,57,33.00
2018,08,08,14,58,33.00
2018,08,08,14,59,33.10
2018,08,08,15,00,33.10
2018,08,08,15,01,33.20
2018,08,08,15,02,33.30
2018,08,08,15,03,33.30
2018,08,08,15,04,33.30
2018,08,08,15,05,33.30
2018,08,08,15,06,33.30
2018,08,08,15,07,33.40
2018,08,08,15,08,33.40
2018,08,08,15,09,33.30
2018,08,08,15,10,33.40
2018,08,08,15,11,33.40
2018,08,08,15,12,33.40
2018,08,08,15,13,33.50
2018,08,08,15,14,33.60
2018,08,08,15,15,33.70
2018,08,08,15,16,33.90
2018,08,08,15,17,34.10
2018,08,08,15,18,34.20
2018,08,08,15,19,34.30
2018,08,08,15,20,34.30
2018,08,08,15,21,34.30
2018,08,08,15,22,34.20
2018,08,08,15,23,34.20
2018,08,08,15,24,34.20
2018,08,08,15,25,34.20
2018,08,08,15,26,34.20
2018,08,08,15,27,34.20
2018,08,08,15,28,34.20
2018,08,08,15,29,34.20
2018,08,08,15,30,34.10
2018,08,08,15,31,33.90
2018,08,08,15,32,33.70
2018,08,08,15,33,33.40
2018,08,08,15,34,33.20
2018,08,08,15,35,33.10
2018,08,08,15,36,32.90
2018,08,08,15,37,32.80
2018,08,08,15,38,32.80
2018,08,08,15,39,32.80
2018,08,08,15,40,32.80
2018,08,08,15,41,32.90
2018,08,08,15,42,33.00
2018,08,08,15,43,33.20
2018,08,08,15,44,33.20
2018,08,08,15,45,33.20
2018,08,08,15,46,33.20
2018,08,08,15,47,33.20
2018,08,08,15,48,33.10
2018,08,08,15,49,33.10
2018,08,08,15,50,33.10
2018,08,08,15,51,33.00
2018,08,08,15,52,33.00
2018,08,08,15,53,32.90
2018,08,08,15,54,32.90
2018,08,08,15,55,32.80
2018,08,08,15,56,32.80
2018,08,08,15,57,32.90
2018,08,08,15,58,32.90
2018,08,08,15,59,33.00
2018,08,08,16,00,33.10
2018,08,08,16,01,33.20
2018,08,08,16,02,33.20
2018,08,08,16,03,33.10
2018,08,08,16,04,33.00
2018,08,08,16,05,33.00
2018,08,08,16,06,32.90
2018,08,08,16,07,32.80
2018,08,08,16,08,32.70
2018,08,08,16,09,32.70
2018,08,08,16,10,32.60
2018,08,08,16,11,32.60
2018,08,08,16,12,32.60
2018,08,08,16,13,32.70
2018,08,08,16,14,32.70
2018,08,08,16,15,32.60
2018,08,08,16,16,32.50
2018,08,08,16,17,32.30
2018,08,08,16,18,32.20
2018,08,08,16,19,32.10
2018,08,08,16,20,32.00
2018,08,08,16,21,31.90
2018,08,08,16,22,31.90
2018,08,08,16,23,31.90
2018,08,08,16,24,32.00
2018,08,08,16,25,32.10
2018,08,08,16,26,32.10
2018,08,08,16,27,32.10
2018,08,08,16,28,32.10
2018,08,08,16,29,32.10
2018,08,08,16,30,32.20
2018,08,08,16,31,32.20
2018,08,08,16,32,32.20
2018,08,08,16,33,32.30
2018,08,08,16,34,32.40
2018,08,08,16,35,32.40
2018,08,08,16,36,32.30
2018,08,08,16,37,32.30
2018,08,08,16,38,32.30
2018,08,08,16,39,32.20
2018,08,08,16,40,32.20
2018,08,08,16,41,32.10
2018,08,08,16,42,32.10
2018,08,08,16,43,32.10
2018,08,08,16,44,32.20
2018,08,08,16,45,32.20
2018,08,08,16,46,32.20
2018,08,08,16,47,32.20
2018,08,08,16,48,32.10
2018,08,08,16,49,32.00
2018,08,08,16,50,32.00
2018,08,08,16,51,32.00
2018,08,08,16,52,32.00
2018,08,08,16,53,32.10
2018,08,08,16,54,32.20
2018,08,08,16,55,32.20
2018,08,08,16,56,32.20
2018,08,08,16,57,32.30
2018,08,08,16,58,32.30
2018,08,08,16,59,32.30
2018,08,08,17,00,32.30
2018,08,08,17,01,32.40
2018,08,08,17,02,32.50
2018,08,08,17,03,32.60
2018,08,08,17,04,32.70
2018,08,08,17,05,32.80
2018,08,08,17,06,32.80
2018,08,08,17,07,32.80
2018,08,08,17,08,32.80
2018,08,08,17,09,32.90
2018,08,08,17,10,32.90
2018,08,08,17,11,32.90
2018,08,08,17,12,32.90
2018,08,08,17,13,32.90
2018,08,08,17,14,32.80
2018,08,08,17,15,32.80
2018,08,08,17,16,32.90
2018,08,08,17,17,32.90
2018,08,08,17,18,32.90
2018,08,08,17,19,32.90